Met observations

Date (UTC) Wind direction m/s kts. Vis. * Weather * Cloud * Temperature (°C) Dew point (°C) Air pressure (Hp)
09-12 17:31 6 11 VIS 10 km BKN 4500ft 1.0 -2.2 1014.7
09-12 17:21 5 10 VIS 10 km BKN 4500ft 0.8 -2.0 1014.7
09-12 17:11 8 15 VIS 10 km BKN 4500ft 0.7 -2.2 1014.7
09-12 17:01 6 11 VIS 10 km BKN 4500ft 1.4 -3.4 1014.2
09-12 16:51 7 13 VIS 10 km BKN 4500ft 1.3 -3.8 1014.1
09-12 16:41 5 10 VIS 10 km BKN 4500ft 1.0 -4.5 1014.0
09-12 16:31 8 15 VIS 10 km BKN 4500ft 1.3 -3.6 1014.0
09-12 16:21 8 15 VIS 10 km BKN 4500ft 1.4 -3.1 1013.8
09-12 16:11 10 20 VIS 10 km BKN 4500ft 1.6 -2.5 1013.7
09-12 16:01 6 12 VIS 10 km BKN 4500ft 1.7 -3.0 1013.5
09-12 15:51 6 12 VIS 10 km BKN 4500ft 0.8 -2.9 1013.3
09-12 15:41 7 13 VIS 10 km BKN 4500ft 0.2 -3.5 1013.2
09-12 15:31 5 10 VIS 10 km BKN 4500ft 0.2 -3.1 1013.1
09-12 15:21 7 14 VIS 10 km BKN 4500ft 0.9 -3.3 1013.0
09-12 15:11 8 15 VIS 10 km BKN 4500ft 1.1 -3.2 1012.9
09-12 15:01 8 16 VIS 10 km BKN 4500ft 1.3 -2.4 1012.6
09-12 14:51 8 16 VIS 10 km BKN 4500ft 2.0 -3.8 1012.3
09-12 14:41 6 12 VIS 10 km BKN 4500ft 2.0 -4.3 1012.0
09-12 14:31 5 10 VIS 10 km BKN 4500ft 1.8 -3.7 1012.0
09-12 14:21 5 10 VIS 10 km BKN 4500ft 1.7 -3.5 1011.7
09-12 14:11 8 16 VIS 10 km BKN 4500ft 1.6 -3.4 1011.7
09-12 14:01 6 12 VIS 10 km BKN 4500ft 2.1 -4.7 1011.5
09-12 13:51 8 15 VIS 10 km BKN 4500ft 2.0 -4.2 1011.4
09-12 13:41 6 11 VIS 10 km BKN 4500ft 1.7 -4.8 1011.2
09-12 13:31 6 11 VIS 10 km BKN 4500ft 1.8 -4.7 1011.1
09-12 13:21 5 10 VIS 10 km BKN 4500ft 1.7 -4.6 1011.1
09-12 13:11 6 11 VIS 10 km BKN 4500ft 1.5 -4.3 1011.0
09-12 13:01 5 10 VIS 10 km BKN 4500ft 1.4 -3.6 1010.9
09-12 12:51 6 12 VIS 10 km BKN 4500ft 1.4 -2.7 1011.0
09-12 12:41 9 18 VIS 10 km BKN 4500ft 1.8 -3.0 1010.9
09-12 12:31 7 14 VIS 10 km BKN 4500ft 2.3 -3.9 1010.6
09-12 12:21 5 10 VIS 10 km BKN 4500ft 2.4 -4.7 1010.4
09-12 12:11 7 13 VIS 10 km BKN 4500ft 2.4 -4.0 1010.4
09-12 12:01 6 12 VIS 10 km BKN 4500ft 2.2 -4.4 1010.3
09-12 11:51 5 10 VIS 10 km BKN 4500ft 2.0 -4.2 1010.1
09-12 11:41 6 12 VIS 10 km BKN 4500ft 1.9 -4.8 1010.0
09-12 11:31 5 10 VIS 10 km BKN 4500ft 1.8 -3.8 1010.0
09-12 11:21 6 12 VIS 10 km BKN 4500ft 1.6 -3.6 1010.0
09-12 11:11 9 17 VIS 10 km BKN 4500ft 1.8 -2.9 1010.0
09-12 11:01 5 10 VIS 10 km BKN 4500ft 2.2 -4.6 1009.7
09-12 10:51 5 10 VIS 10 km BKN 4500ft 1.9 -3.6 1009.6
09-12 10:41 5 10 VIS 10 km BKN 4500ft 1.8 -4.0 1009.5
09-12 10:31 6 11 VIS 10 km BKN 4500ft 1.5 -3.7 1009.3
09-12 10:21 7 13 VIS 10 km BKN 4500ft 1.4 -3.7 1009.3
09-12 10:11 8 15 VIS 10 km BKN 4500ft 1.6 -3.7 1009.1
09-12 10:01 6 11 VIS 10 km BKN 4500ft 1.9 -2.8 1009.0
09-12 09:51 6 12 VIS 10 km BKN 4500ft 1.6 -2.8 1008.7
09-12 09:41 7 13 VIS 10 km BKN 4500ft 1.9 -2.7 1008.6
09-12 09:31 4 08 VIS 10 km BKN 4500ft 1.4 -3.0 1008.4
09-12 09:21 5 10 VIS 10 km BKN 4500ft 1.6 -3.2 1008.3
09-12 09:11 4 08 VIS 10 km BKN 4500ft 1.4 -2.8 1008.3
09-12 09:01 6 12 VIS 10 km BKN 4500ft 1.4 -2.3 1008.2
09-12 08:51 9 18 VIS 10 km BKN 4500ft 1.5 -2.4 1008.0
09-12 08:41 7 13 VIS 10 km BKN 4500ft 1.9 -2.6 1007.8
09-12 08:31 6 12 VIS 10 km BKN 4500ft 1.7 -2.8 1007.7
09-12 08:21 6 11 VIS 10 km BKN 4500ft 1.6 -3.3 1007.6
09-12 08:11 7 13 VIS 10 km BKN 4500ft 1.2 -2.6 1007.5
09-12 08:01 8 16 VIS 10 km BKN 4500ft 1.4 -1.8 1007.3
09-12 07:51 7 14 VIS 10 km BKN 4500ft 1.4 -1.0 1007.1
09-12 07:41 8 16 VIS 10 km BKN 4500ft 1.7 -1.0 1006.9
09-12 07:31 6 11 VIS 10 km BKN 4500ft 2.4 -3.3 1006.7
09-12 07:21 4 07 VIS 10 km BKN 4500ft 2.4 -2.9 1006.5
09-12 07:11 4 07 VIS 10 km BKN 4500ft 2.1 -3.4 1006.3
09-12 07:01 5 09 VIS 10 km BKN 4500ft 2.0 -3.6 1006.2
09-12 06:51 4 07 VIS 10 km BKN 4500ft 1.9 -2.9 1006.0
09-12 06:41 2 04 VIS 10 km BKN 4500ft 1.1 -1.5 1005.9
09-12 06:31 3 06 VIS 10 km BKN 4500ft 1.2 -1.7 1005.8
09-12 06:21 2 04 VIS 10 km BKN 4500ft 2.3 -2.3 1005.6
09-12 06:11 4 08 VIS 10 km BKN 4500ft 1.7 -2.4 1005.4
09-12 06:01 6 11 VIS 10 km BKN 4500ft 2.0 -2.2 1005.1
09-12 05:51 7 14 VIS 10 km BKN 4500ft 1.6 -1.7 1005.0
09-12 05:41 4 08 VIS 10 km BKN 4500ft 1.5 -2.8 1004.9
09-12 05:31 4 08 VIS 10 km BKN 4500ft 1.6 -2.5 1004.7
09-12 05:21 4 08 VIS 10 km BKN 4500ft 1.3 -1.6 1004.7
09-12 05:11 9 17 VIS 10 km BKN 4500ft 1.5 -2.0 1004.5
09-12 05:01 3 05 VIS 10 km BKN 4500ft 1.2 -2.2 1004.1
09-12 04:51 4 08 VIS 10 km BKN 4500ft 1.4 -2.2 1003.9
09-12 04:41 5 10 VIS 10 km BKN 4500ft 2.2 -2.5 1003.8
09-12 04:31 4 08 VIS 10 km BKN 4500ft 2.1 -2.9 1003.6
09-12 04:21 5 09 VIS 10 km BKN 4500ft 1.9 -2.8 1003.5
09-12 04:11 5 09 VIS 10 km BKN 4500ft 2.0 -2.9 1003.4
09-12 04:01 6 12 VIS 10 km BKN 4500ft 2.4 -3.3 1003.2
09-12 03:51 8 15 VIS 10 km BKN 4500ft 2.7 -3.6 1003.1
09-12 03:41 5 10 VIS 10 km BKN 4500ft 2.3 -4.0 1002.9
09-12 03:31 5 09 VIS 10 km BKN 4500ft 1.9 -2.8 1002.8
09-12 03:21 3 06 VIS 10 km BKN 4500ft 0.8 -2.2 1002.7
09-12 03:11 3 06 VIS 10 km BKN 4500ft 1.4 -1.7 1002.6
09-12 03:01 6 11 VIS 10 km BKN 4500ft 1.5 -1.0 1002.5
09-12 02:51 7 13 VIS 10 km BKN 4500ft 1.4 -0.9 1002.4
09-12 02:41 9 18 VIS 10 km BKN 4500ft 2.1 -2.1 1002.3
09-12 02:31 6 11 VIS 10 km BKN 4500ft 2.2 -3.1 1001.9
09-12 02:21 7 13 VIS 10 km BKN 4500ft 2.2 -3.2 1001.6
09-12 02:11 7 14 VIS 10 km BKN 4500ft 2.1 -3.3 1001.4
09-12 02:01 7 14 VIS 10 km BKN 4500ft 2.4 -3.2 1001.3
09-12 01:51 8 15 VIS 10 km BKN 4500ft 2.6 -2.3 1001.2
09-12 01:41 9 17 VIS 10 km BKN 4500ft 2.7 -2.1 1001.1
09-12 01:31 7 14 VIS 10 km BKN 4500ft 2.3 -2.0 1001.0
09-12 01:21 6 12 VIS 10 km BKN 4500ft 2.3 -1.6 1000.8
09-12 01:11 10 19 VIS 10 km BKN 4500ft 2.2 -1.8 1000.7
09-12 01:01 6 11 VIS 10 km BKN 4500ft 2.6 -3.2 1000.3
09-12 00:51 8 16 VIS 10 km BKN 4500ft 2.8 -3.1 1000.2
09-12 00:41 8 16 VIS 10 km BKN 4500ft 2.8 -2.9 1000.0
09-12 00:31 8 16 VIS 10 km BKN 4500ft 2.8 -2.6 999.7
09-12 00:21 10 20 VIS 10 km BKN 4500ft 3.0 -2.7 999.5
09-12 00:11 7 13 VIS 10 km BKN 4500ft 2.6 -2.6 999.3
09-12 00:01 6 11 VIS 10 km BKN 4500ft 2.7 -2.5 999.2
08-12 23:51 3 06 VIS 10 km BKN 4500ft 2.7 -1.9 999.1
08-12 23:41 1 02 VIS 10 km BKN 4500ft 2.6 -1.3 999.0
08-12 23:31 3 05 VIS 10 km BKN 4500ft 2.4 -0.9 998.8
08-12 23:21 4 08 VIS 10 km BKN 4500ft 2.6 -1.1 998.7
08-12 23:11 7 14 VIS 10 km BKN 4500ft 2.6 -1.4 998.5
08-12 23:01 2 03 VIS 10 km BKN 4500ft 2.5 -1.4 998.1
08-12 22:51 4 07 VIS 10 km BKN 4500ft 3.0 -1.5 997.9
08-12 22:41 5 10 VIS 10 km BKN 4500ft 2.9 -1.5 997.7
08-12 22:31 3 06 VIS 10 km BKN 4500ft 2.6 -1.1 997.6
08-12 22:21 5 09 VIS 10 km BKN 4500ft 2.2 -0.6 997.5
08-12 22:11 5 10 VIS 10 km BKN 4500ft 2.4 -0.5 997.4
08-12 22:01 5 10 VIS 10 km BKN 4500ft 2.2 -0.3 997.3
08-12 21:51 6 11 VIS 10 km BKN 4500ft 2.4 -0.4 997.3
08-12 21:41 2 04 VIS 10 km BKN 4500ft 2.1 -1.4 997.1
08-12 21:31 2 03 VIS 10 km BKN 4500ft 1.2 -1.3 996.9
08-12 21:21 2 04 VIS 10 km BKN 4500ft 1.7 -0.5 996.8
08-12 21:11 3 05 VIS 10 km BKN 4500ft 1.6 -0.2 996.7
08-12 21:01 5 10 VIS 10 km BKN 4500ft 2.0 -0.5 996.6
08-12 20:51 3 05 VIS 10 km BKN 4500ft 1.6 -1.4 996.4
08-12 20:41 2 03 VIS 10 km BKN 4500ft 1.8 -1.0 996.3
08-12 20:31 1 02 VIS 10 km BKN 4500ft 2.2 -0.5 996.3
08-12 20:21 3 06 VIS 10 km BKN 4500ft 2.1 -0.5 996.2
08-12 20:11 3 05 VIS 10 km BKN 4500ft 2.1 -0.9 996.0
08-12 20:01 4 07 VIS 10 km BKN 4500ft 2.4 -1.1 995.8
08-12 19:51 3 05 VIS 10 km BKN 4500ft 2.5 -1.6 995.6
08-12 19:41 3 06 VIS 10 km BKN 4500ft 2.7 -1.8 995.5
08-12 19:31 3 05 VIS 10 km BKN 4500ft 2.7 -2.2 995.4
08-12 19:21 4 08 VIS 10 km BKN 4500ft 2.7 -2.4 995.2
08-12 19:11 4 08 VIS 10 km BKN 4500ft 2.6 -2.5 995.3
08-12 19:01 3 06 VIS 10 km BKN 4500ft 2.6 -2.2 995.2
08-12 18:51 5 09 VIS 10 km BKN 4500ft 2.1 -1.1 995.1
08-12 18:41 5 10 VIS 10 km BKN 4500ft 2.5 -1.4 995.0
08-12 18:31 3 06 VIS 10 km BKN 4500ft 3.0 -2.7 994.8
08-12 18:21 4 08 VIS 10 km BKN 4500ft 2.7 -2.4 994.6
08-12 18:11 3 05 VIS 10 km BKN 4500ft 2.4 -2.2 994.6
08-12 18:01 6 11 VIS 10 km BKN 4500ft 2.8 -2.3 994.5
08-12 17:51 4 07 VIS 10 km BKN 4500ft 2.9 -2.7 994.3
08-12 17:41 3 06 VIS 10 km BKN 4500ft 2.8 -2.6 994.2

Met data is updated every half hour and is for information only.
* Visibility, weather and cloud values are updated during the airport’s service hours only.
Flight planning documentation is available on opmet.dmi.dk.
For meteorological abbreviations, click here